DW6400 Weather Reports


Display with metric or nautical units.
time (UTC)temp
F
wind
direction
speed
MPH
gust
MPH
rain 1hr
in
rain 24hr
in
rain mn
in
humidity
%
barometer
mb
20180822015128 56 143 2.0 7.0 0.00 0.37 0.37 93 1017.8
20180822013631 56 143 0.0 1.0 0.00 0.37 0.37 94 1017.3
20180822012130 56 141 0.0 2.0 0.00 0.37 0.37 94 1017.1
20180822010628 56 141 0.0 0.0 0.00 0.37 0.37 94 1017.0
20180822005135 56 141 0.0 4.0 0.02 0.37 0.37 94 1016.8
20180822003625 56 141 0.0 3.0 0.07 0.37 0.37 94 1015.9
20180822002124 55 312 0.0 3.0 0.10 0.37 0.37 94 1015.5
20180822000624 55 315 0.0 1.0 0.11 0.37 0.37 93 1015.9
20180821235121 55 315 0.0 3.0 0.11 0.35 0.35 92 1017.1
20180821233624 55 315 0.0 0.0 0.07 0.28 0.28 89 1018.2
20180821232118 56 315 0.0 3.0 0.14 0.27 0.27 88 1018.1
20180821230616 57 315 0.0 3.0 0.19 0.26 0.26 90 1017.7
20180821225115 57 313 1.0 4.0 0.20 0.23 0.23 88 1017.3
20180821223612 58 313 0.0 1.0 0.20 0.21 0.21 88 1017.1
20180821222110 59 313 0.0 0.0 0.13 0.13 0.13 85 1016.7
20180821220550 60 313 0.0 1.0 0.07 0.07 0.07 81 1015.5
20180821215044 61 313 0.0 2.0 0.03 0.03 0.03 77 1015.6
20180821212040 63 324 0.0 5.0 0.00 0.00 0.00 60 1014.4
20180821210537 65 330 4.0 16.0 0.00 0.00 0.00 57 1014.7
20180821205034 67 338 5.0 15.0 0.00 0.00 0.00 54 1014.4
20180821203532 67 346 2.0 6.0 0.00 0.00 0.00 58 1014.2
20180821202036 66 131 0.0 4.0 0.00 0.00 0.00 62 1013.6
20180821200533 67 122 0.0 2.0 0.00 0.00 0.00 56 1014.0
20180821195031 69 122 0.0 6.0 0.00 0.00 0.00 52 1014.0
20180821193536 74 257 2.0 8.0 0.00 0.00 0.00 48 1012.4
20180821192033 76 293 2.0 10.0 0.00 0.00 0.00 46 1011.8
20180821185027 80 343 2.0 5.0 0.00 0.00 0.00 36 1011.6
20180821183522 78 342 1.0 3.0 0.00 0.00 0.00 39 1011.8
20180821182018 76 327 1.0 3.0 0.00 0.00 0.00 46 1012.5
20180821180516 76 304 0.0 2.0 0.00 0.00 0.00 42 1012.8
20180821175014 75 304 0.0 2.0 0.00 0.00 0.00 47 1012.7
20180821173509 72 304 0.0 3.0 0.00 0.00 0.00 48 1012.8
20180821172007 70 304 1.0 3.0 0.00 0.00 0.00 53 1012.9
20180821170511 68 304 0.0 1.0 0.00 0.00 0.00 58 1013.2
20180821165058 67 304 0.0 1.0 0.00 0.00 0.00 62 1013.7
20180821163455 66 304 0.0 3.0 0.00 0.00 0.00 60 1013.8
20180821161955 65 304 0.0 1.0 0.00 0.00 0.00 63 1014.5
20180821160448 63 304 0.0 1.0 0.00 0.00 0.00 62 1014.6
20180821154942 61 304 0.0 1.0 0.00 0.00 0.00 64 1014.8
20180821153443 60 304 0.0 1.0 0.00 0.00 0.00 67 1014.5
20180821151940 59 304 2.0 4.0 0.00 0.00 0.00 62 1013.9
20180821150435 58 305 0.0 3.0 0.00 0.00 0.00 64 1014.5
20180821144934 57 307 1.0 3.0 0.00 0.00 0.00 63 1014.6
20180821143432 56 308 2.0 4.0 0.00 0.00 0.00 64 1015.2
20180821141931 54 308 0.0 3.0 0.00 0.00 0.00 71 1015.8
20180821140428 52 308 0.0 0.0 0.00 0.00 0.00 76 1016.0
20180821134925 51 308 0.0 1.0 0.00 0.00 0.00 76 1016.2
20180821133423 50 308 0.0 1.0 0.00 0.00 0.00 73 1016.3
20180821131923 50 308 0.0 0.0 0.00 0.00 0.00 73 1016.5
20180821130416 50 308 0.0 0.0 0.00 0.00 0.00 75 1016.6
20180821124914 50 308 0.0 0.0 0.00 0.00 0.00 72 1016.1
20180821123409 50 308 0.0 0.0 0.00 0.00 0.00 71 1015.7
20180821121907 50 308 0.0 0.0 0.00 0.00 0.00 70 1015.3
20180821120407 51 308 0.0 0.0 0.00 0.00 0.00 69 1015.2
20180821114910 51 308 0.0 0.0 0.00 0.00 0.00 70 1015.0
20180821113406 51 308 0.0 2.0 0.00 0.00 0.00 70 1015.1
20180821111900 52 308 0.0 2.0 0.00 0.00 0.00 70 1015.0
20180821110357 53 308 0.0 1.0 0.00 0.00 0.00 69 1015.0
20180821104859 53 308 0.0 0.0 0.00 0.00 0.00 67 1015.3
20180821103355 54 308 0.0 3.0 0.00 0.00 0.00 67 1015.5
20180821101852 54 310 1.0 8.0 0.00 0.00 0.00 66 1015.1
20180821100347 55 129 2.0 7.0 0.00 0.00 0.00 68 1015.1
20180821094846 56 144 0.0 4.0 0.00 0.00 0.00 67 1015.0
20180821093347 56 134 2.0 8.0 0.00 0.00 0.00 59 1014.3
20180821091845 57 134 2.0 10.0 0.00 0.00 0.00 57 1013.7
20180821090346 57 140 2.0 8.0 0.00 0.00 0.00 57 1013.5
20180821084838 57 140 0.0 9.0 0.00 0.00 0.00 58 1013.1
20180821083340 57 134 3.0 16.0 0.00 0.00 0.00 58 1013.2
20180821081837 58 134 4.0 11.0 0.00 0.00 0.00 59 1013.0
20180821080334 58 138 3.0 11.0 0.00 0.00 0.00 62 1013.3
20180821074829 58 135 2.0 10.0 0.00 0.00 0.00 63 1013.6
20180821073328 58 139 3.0 10.0 0.00 0.00 0.00 64 1013.7
20180821071829 59 136 5.0 15.0 0.00 0.00 0.00 64 1014.2
20180821070326 59 136 5.0 11.0 0.00 0.00 0.00 65 1014.3
20180821064822 59 137 5.0 12.0 0.00 0.00 0.00 64 1014.3
20180821063320 60 141 5.0 11.0 0.00 0.00 0.00 65 1014.7
20180821061820 60 140 3.0 9.0 0.00 0.00 0.00 67 1014.8
20180821060315 59 131 4.0 11.0 0.00 0.00 0.00 69 1015.0
20180821054813 59 146 1.0 4.0 0.00 0.00 0.00 66 1015.1
20180821053312 60 146 0.0 7.0 0.00 0.00 0.00 62 1015.2
20180821051812 60 146 0.0 2.0 0.00 0.00 0.00 61 1015.4
20180821050312 61 146 1.0 7.0 0.00 0.00 0.00 59 1015.5
20180821044812 62 142 0.0 4.0 0.00 0.00 0.00 59 1015.4
20180821043311 62 142 0.0 2.0 0.00 0.00 0.00 66 1015.1
20180821041809 63 142 0.0 5.0 0.00 0.00 0.00 65 1015.1
20180821040309 63 144 1.0 7.0 0.00 0.00 0.00 64 1015.1
20180821034808 63 144 1.0 4.0 0.00 0.00 0.00 64 1015.0
20180821033310 64 143 1.0 8.0 0.00 0.00 0.00 62 1014.8
20180821031806 64 143 2.0 9.0 0.00 0.00 0.00 61 1014.4
20180821030306 65 142 5.0 11.0 0.00 0.00 0.00 59 1014.3
20180821024810 64 139 4.0 9.0 0.00 0.00 0.00 60 1014.3
20180821023303 65 139 1.0 3.0 0.00 0.00 0.00 60 1014.2
20180821021802 65 139 1.0 4.0 0.00 0.00 0.00 59 1014.0
20180821020302 66 139 0.0 8.0 0.00 0.00 0.00 59 1013.7